OBJECT_NAME,OBJECT_ID,EPOCH,MEAN_MOTION,ECCENTRICITY,INCLINATION,RA_OF_ASC_NODE,ARG_OF_PERICENTER,MEAN_ANOMALY,EPHEMERIS_TYPE,CLASSIFICATION_TYPE,NORAD_CAT_ID,ELEMENT_SET_NO,REV_AT_EPOCH,BSTAR,MEAN_MOTION_DOT,MEAN_MOTION_DDOT BEIDOU-2 IGSO-1 (C06),2010-036A,2026-08-21T18:11:43.719360,1.00253816,.00581868,54.3073,162.3689,224.3483,321.2966,0,U,36828,999,5875,0,-.137E-5,0 BEIDOU-2 G4 (C04),2010-057A,2026-09-12T07:32:21.605280,1.00270634,.000799,3.8586,68.3272,180.0187,16.0579,0,U,37210,999,5816,0,-.125E-5,0 BEIDOU-2 IGSO-2 (C07),2010-068A,2026-09-10T23:47:02.683392,1.00254283,.00572503,47.3940,270.7552,216.2433,325.9173,0,U,37256,999,5765,0,-.181E-5,0 BEIDOU-2 IGSO-3 (C08),2011-013A,2026-09-11T17:17:23.769600,1.00292639,.0034682,62.5388,39.3441,183.6392,132.9930,0,U,37384,999,5652,0,-.177E-5,0 BEIDOU-2 IGSO-4 (C09),2011-038A,2026-09-10T19:39:11.817792,1.00268280,.01603217,54.6025,164.9115,231.0094,343.0930,0,U,37763,999,5550,0,-.114E-5,0 BEIDOU-2 IGSO-5 (C10),2011-073A,2026-09-10T19:05:16.843776,1.00279182,.01166519,47.5267,270.4734,224.1508,237.2700,0,U,37948,999,5399,0,-.16E-5,0 BEIDOU-2 G5 (C05),2012-008A,2026-09-12T03:55:09.217632,1.00267637,.00068389,3.7859,69.0679,239.5091,160.1264,0,U,38091,999,5324,0,.44E-6,0 BEIDOU-2 M3 (C11),2012-018A,2026-09-07T08:14:19.258080,1.86229821,.00229055,55.6835,302.1014,272.4999,87.3124,0,U,38250,999,9747,0,-.28E-6,0 BEIDOU-2 M4 (C12),2012-018B,2026-09-11T00:49:33.601152,1.86229392,.00142245,55.5803,301.1830,272.3678,87.5423,0,U,38251,999,9754,0,-.49E-6,0 BEIDOU-2 M6 (C14),2012-050B,2026-09-11T19:37:15.397248,1.86230878,.00110023,56.6242,60.0343,4.3540,355.6744,0,U,38775,999,9492,0,-.38E-6,0 BEIDOU-2 G6 (C02),2012-059A,2026-09-12T02:19:48.360864,1.00270221,.00068483,4.6364,72.5336,323.5617,73.9929,0,U,38953,999,5078,0,-.188E-5,0 BEIDOU-3S IGSO-1S (C31),2015-019A,2026-09-10T17:01:05.504736,1.00288273,.00387109,49.0313,294.4241,200.3707,205.9134,0,U,40549,999,4193,0,-.162E-5,0 BEIDOU-3S M2S (C58),2015-037A,2026-09-11T05:38:53.800224,1.86231926,.00116246,54.7915,299.0777,259.4932,100.4462,0,U,40748,999,7572,0,-.49E-6,0 BEIDOU-3S M1S (C57),2015-037B,2026-09-09T06:49:57.474336,1.86254857,.000181,54.7897,299.1308,48.3830,311.7068,0,U,40749,999,7569,0,-.34E-6,0 BEIDOU-3S IGSO-2S (C56),2015-053A,2026-09-10T23:03:27.860832,1.00285074,.0065681,49.0947,257.7528,192.4722,341.2961,0,U,40938,999,4021,0,-.124E-5,0 BEIDOU-2 IGSO-6 (C13),2016-021A,2026-09-11T20:43:38.603136,1.00282549,.0061604,60.3547,37.1827,228.2411,132.6997,0,U,41434,999,3835,0,-.162E-5,0 BEIDOU-2 G7 (C03),2016-037A,2026-09-12T07:35:10.620096,1.00275942,.00051662,1.9316,69.6659,352.1556,153.8063,0,U,41586,999,776,0,-.367E-5,0 BEIDOU-3 M1 (C19),2017-069A,2026-09-09T23:19:40.299744,1.86231101,.0007331,56.7701,60.2963,324.1360,35.8435,0,U,43001,999,6018,0,-.2E-6,0 BEIDOU-3 M2 (C20),2017-069B,2026-09-12T01:24:37.751328,1.86230429,.00062789,56.7708,60.2633,3.9690,356.0541,0,U,43002,999,6021,0,-.39E-6,0 BEIDOU-3 M7 (C27),2018-003A,2026-09-11T19:13:40.274112,1.86227896,.00032103,54.2473,299.2879,105.5565,254.5469,0,U,43107,999,5896,0,-.55E-6,0 BEIDOU-3 M8 (C28),2018-003B,2026-09-11T04:58:59.402208,1.86230841,.00042014,54.2406,299.2900,261.2655,98.7568,0,U,43108,999,5896,0,-.51E-6,0 BEIDOU-3 M4 (C22),2018-018A,2026-09-11T15:37:39.675360,1.86231004,.0006048,56.7296,60.3017,42.6888,317.3783,0,U,43207,999,5835,0,-.36E-6,0 BEIDOU-3 M3 (C21),2018-018B,2026-09-11T17:13:26.128992,1.86230771,.00054068,56.7302,60.3038,347.6353,12.3712,0,U,43208,999,5835,0,-.36E-6,0 BEIDOU-3 M9 (C29),2018-029A,2026-09-11T09:34:48.423648,1.86228302,.00017167,54.1130,296.9256,233.1525,126.8995,0,U,43245,999,5750,0,-.49E-6,0 BEIDOU-3 M10 (C30),2018-029B,2026-09-11T07:59:39.179040,1.86229002,.00026418,54.1108,296.9552,17.4348,342.6422,0,U,43246,999,5748,0,-.48E-6,0 BEIDOU-2 IGSO-7 (C16),2018-057A,2026-09-11T13:07:24.382272,1.00277412,.01079807,55.2130,162.3239,236.7833,260.8322,0,U,43539,999,2999,0,-.16E-5,0 BEIDOU-3 M5 (C23),2018-062A,2026-09-11T13:22:02.711712,1.86228716,.00041089,54.0829,179.3693,311.4726,48.4906,0,U,43581,999,5524,0,-.8E-7,0 BEIDOU-3 M6 (C24),2018-062B,2026-09-10T21:12:43.171200,1.86228127,.00064136,54.0824,179.3813,28.3297,331.6991,0,U,43582,999,5523,0,-.15E-6,0 BEIDOU-3 M12 (C26),2018-067A,2026-09-10T19:44:14.425152,1.86227478,.00086844,54.1788,178.1378,35.7772,324.2772,0,U,43602,999,5471,0,-.15E-6,0 BEIDOU-3 M11 (C25),2018-067B,2026-09-12T00:45:32.086368,1.86226940,.00052237,54.1757,178.0602,24.7633,335.2664,0,U,43603,999,5476,0,-.2E-7,0 BEIDOU-3 M13 (C32),2018-072A,2026-09-11T23:39:18.730080,1.86230810,.00041801,56.7046,59.7997,330.4364,29.5577,0,U,43622,999,5427,0,-.4E-6,0 BEIDOU-3 M14 (C33),2018-072B,2026-09-11T20:25:30.706176,1.86230892,.00038643,56.7062,59.7985,24.7605,335.2765,0,U,43623,999,5426,0,-.39E-6,0 BEIDOU-3 M16 (C35),2018-078A,2026-09-10T22:21:05.738688,1.86232315,.0006056,54.0096,296.9723,32.3821,327.7243,0,U,43647,999,5375,0,-.45E-6,0 BEIDOU-3 M15 (C34),2018-078B,2026-09-11T14:22:17.234112,1.86227470,.00026591,54.0047,296.9488,38.7743,321.3116,0,U,43648,999,5378,0,-.5E-6,0 BEIDOU-3 G1 (C59),2018-085A,2026-09-12T07:32:21.605280,1.00271639,.00059599,2.6093,94.9051,21.2547,148.3193,0,U,43683,999,2893,0,-.122E-5,0 BEIDOU-3 M17 (C36),2018-093A,2026-09-11T10:02:12.634656,1.86228307,.0008617,54.1662,179.3727,302.8640,187.5989,0,U,43706,999,5314,0,-.9E-7,0 BEIDOU-3 M18 (C37),2018-093B,2026-09-12T03:52:46.892640,1.86226659,.00074767,54.1670,179.3395,338.2296,21.7414,0,U,43707,999,5315,0,-.2E-7,0 BEIDOU-3 IGSO-1 (C38),2019-023A,2026-09-07T17:44:03.010272,1.00267210,.0027421,58.8141,36.8058,223.4639,111.5661,0,U,44204,999,803,0,-.201E-5,0 BEIDOU-2 G8 (C01),2019-027A,2026-09-12T07:44:54.685824,1.00272032,.00090495,1.8738,74.3172,278.0738,259.7237,0,U,44231,999,2695,0,-.26E-5,0 BEIDOU-3 IGSO-2 (C39),2019-035A,2026-09-11T10:59:48.652800,1.00273492,.00386525,55.2503,158.1052,211.3311,265.7860,0,U,44337,999,2653,0,-.155E-5,0 BEIDOU-3 M24 (C46),2019-061A,2026-09-10T01:57:00.737856,1.86229234,.00091736,54.3942,179.8664,11.0844,348.9243,0,U,44542,999,4737,0,-.24E-6,0 BEIDOU-3 M23 (C45),2019-061B,2026-09-10T11:52:23.318976,1.86227700,.00060428,54.3922,179.8209,0.0624,188.1997,0,U,44543,999,4738,0,-.2E-6,0 BEIDOU-3 IGSO-3 (C40),2019-073A,2026-09-11T11:21:00.152352,1.00264080,.00468467,54.6556,279.9570,198.0806,161.8102,0,U,44709,999,2532,0,-.166E-5,0 BEIDOU-3 M22 (C44),2019-078A,2026-09-11T12:47:45.201984,1.86227049,.00048404,53.8546,296.7826,42.9059,317.1987,0,U,44793,999,4625,0,-.5E-6,0 BEIDOU-3 M21 (C43),2019-078B,2026-09-11T03:15:42.039936,1.86227553,.00027356,53.8284,296.7562,33.9992,326.0864,0,U,44794,999,4625,0,-.47E-6,0 BEIDOU-3 M19 (C41),2019-090A,2026-09-11T09:03:23.953248,1.86231354,.00157674,56.6386,59.9456,292.8904,67.0484,0,U,44864,999,4583,0,-.34E-6,0 BEIDOU-3 M20 (C42),2019-090B,2026-09-09T02:16:43.229856,1.86231127,.00130536,56.6383,60.0563,308.9371,50.3333,0,U,44865,999,4577,0,-.13E-6,0 BEIDOU-3 G2 (C60),2020-017A,2026-09-12T04:01:01.155072,1.00272263,.0002124,2.5806,48.3907,131.9601,311.1309,0,U,45344,999,2413,0,-.153E-5,0 BEIDOU-3 G3 (C61),2020-040A,2026-09-12T07:35:10.620096,1.00269676,.00026444,2.6569,67.4129,281.4958,226.7590,0,U,45807,999,2294,0,-.367E-5,0 BEIDOU-3 G4 (C62),2023-066A,2026-09-12T07:43:39.806400,1.00271116,.00052568,0.4400,356.6797,198.7514,51.8772,0,U,56564,999,1226,0,-.295E-5,0 BEIDOU-3 M28 (C50),2023-207A,2026-09-12T06:52:26.879808,1.86229677,.00007109,55.8347,59.3693,44.9600,315.0622,0,U,58654,999,1846,0,-.45E-6,0 BEIDOU-3 M26 (C48),2023-207B,2026-09-12T02:00:52.112736,1.86229584,.00009182,55.8364,59.3628,252.9433,107.0639,0,U,58655,999,1844,0,-.43E-6,0 BEIDOU-3 M25 (C47),2024-168B,2026-09-11T08:44:35.394720,1.86230059,.00045218,54.3933,299.2402,288.6681,66.5723,0,U,61186,999,1338,0,-.51E-6,0 BEIDOU-3 M27 (C49),2024-168C,2026-09-11T19:19:42.947616,1.86230254,.00007278,54.3885,299.2074,333.0111,92.9908,0,U,61187,999,1087,0,-.54E-6,0